Overview Statistics Trail Chart Weather Telemetry Raw packets
 

This is the latest recevied weather packets stored in our database for station/object IU3OVK-13. If no packets are shown the sender has not sent any weather packets the latest 10 day(s).

<< 15 16 17 18 19 20 21 >>
Time Temp. Humidity Pressure Rain* Wind** Luminosity Snow
1788330399 34.44° C 99% 1011.1 hPa - - - -
1788329777 27.22° C 99% 1014.3 hPa - - - -
1788329157 27.22° C 99% 1014.4 hPa - - - -
1788328534 17.78° C 99% 1011.8 hPa - - - -
1788327914 16.67° C 99% 1011.9 hPa - - - -
1788327294 17.22° C 99% 1011.8 hPa - - - -
1788326674 17.22° C 99% 1011.8 hPa - - - -
1788296844 21.67° C 99% 1011.7 hPa - - - -
1788296224 21.67° C 99% 1011.2 hPa - - - -
1788295604 21.11° C 99% 1011.6 hPa - - - -
1788294984 21.11° C 99% 1011.5 hPa - - - -
1788294364 21.11° C 99% 1012 hPa - - - -
1788293743 21.67° C 99% 1012.4 hPa - - - -
1788293123 21.67° C 99% 1012 hPa - - - -
1788292503 22.22° C 99% 1011.6 hPa - - - -
1788291883 22.78° C 99% 1011.6 hPa - - - -
1788291262 22.22° C 99% 1011.4 hPa - - - -
1788290642 22.22° C 99% 1011.7 hPa - - - -
1788289402 23.33° C 99% 1011.3 hPa - - - -
1788288782 23.33° C 99% 1011.6 hPa - - - -
1788288161 23.89° C 99% 1011.9 hPa - - - -
1788287541 24.44° C 99% 1011.8 hPa - - - -
1788286921 24.44° C 99% 1011.6 hPa - - - -
1788286301 25° C 99% 1011.5 hPa - - - -
1788285680 25° C 99% 1011.4 hPa - - - -

* Rain since midnight (hover to see other rain measurements)
** Current wind speed in m/s (hover to see current wind gust speed)